Regional Weather Roundup
Issued by NWS

Home | Current Version | Previous Version | Text Only | Print | Product List | Glossary On
Versions: 1 2 3 4 5 6 7 8 9 10 11 12 13 14 15 16 17 18 19 20 21 22 23 24 25 26 27 28 29 30 31 32 33 34 35 36 37 38 39 40 41 42 43 44 45 46 47 48 49 50
000
ASUS44 KOUN 281310
RWROK

WEATHER ROUNDUP FOR OKLAHOMA
NATIONAL WEATHER SERVICE NORMAN OK
800 AM CDT SAT MAR 28 2015

NOTE: "FAIR" INDICATES FEW OR NO CLOUDS BELOW 12,000 FEET WITH NO
      SIGNIFICANT WEATHER AND/OR OBSTRUCTIONS TO VISIBILITY.

OKZ001>007-009>012-014-015-017-281400-
NORTHWEST OKLAHOMA AND THE PANHANDLE

CITY           SKY/WX    TMP DP  RH WIND       PRES   REMARKS
GAGE           CLEAR     42  37  82 SW8       30.01R
GUYMON         CLEAR     50  33  52 W9        30.01S
ENID/WOODRING  PTCLDY    39  37  93 E7        30.03R WCI  34
$$

OKZ016-021>023-033>039-044-045-281400-
SOUTHWEST OKLAHOMA

CITY           SKY/WX    TMP DP  RH WIND       PRES   REMARKS
LAWTON/REGL    CLEAR     37  35  92 CALM      30.05R
LAWTON/FT SILL CLEAR     43  40  87 SW6       30.03R
FREDERICK      CLEAR     41  38  89 E7        30.02R FOG
CLINTON        CLEAR     45  39  79 SW8       30.03R
HOBART         CLEAR     41  39  93 SW12      30.03R
ALTUS AFB      CLEAR     38  38 100 E2        30.03S
$$

OKZ018>020-024>031-281400-
CENTRAL OKLAHOMA

CITY           SKY/WX    TMP DP  RH WIND       PRES   REMARKS
OKLAHOMA CITY  PTCLDY    44  38  79 S7        30.03R
OKC/WILEY POST CLEAR     47  39  74 SW14      30.02R
OKC/TINKER AFB PTCLDY    46  38  75 S10       30.02S
STILLWATER     PTCLDY    43  36  76 NE3       30.07R
GUTHRIE        PTCLDY    47  38  71 MISG      30.04R
$$

OKZ008-013-054>072-281400-
NORTHEAST OKLAHOMA

CITY           SKY/WX    TMP DP  RH WIND       PRES   REMARKS
TULSA          LGT RAIN  45  38  76 SE8       30.08R
TULSA/JONES    MOCLDY    46  36  68 S5        30.09R
PONCA CITY     PTCLDY    43  33  68 SE8       30.05S
BARTLESVILLE   PTCLDY    44  32  62 S6        30.10R
MUSKOGEE       CLOUDY    45  38  76 SE6       30.14R
$$

OKZ032-040>043-046>053-073>077-281400-
SOUTH CENTRAL/SOUTHEAST OKLAHOMA

CITY           SKY/WX    TMP DP  RH WIND       PRES   REMARKS
ARDMORE/DWNTWN PTCLDY    43  37  81 CALM      30.08R
MCALESTER      MOCLDY    46  33  60 CALM      30.11R
$$



USA.gov is the U.S. government's official web portal to all federal, state and local government web resources and services.